This is the latest recevied weather packets stored in our database for station/object KI2K. If no packets are shown the sender has not sent any weather packets the latest 10 day(s).
| Time | Temp. | Humidity | Pressure | Rain* | Wind** | Luminosity | Snow |
|---|---|---|---|---|---|---|---|
| 1777850820 | 15° C | 60% | 1010.3 hPa | 0 mm | - | 42 W/m² | - |
| 1777850517 | 15° C | 61% | 1010.4 hPa | 0 mm | - | 40 W/m² | - |
| 1777850216 | 15° C | 60% | 1010.5 hPa | 0 mm | - | 38 W/m² | - |
| 1777849911 | 15.56° C | 59% | 1010.7 hPa | 0 mm | - | 39 W/m² | - |
| 1777849608 | 15.56° C | 59% | 1010.4 hPa | 0 mm | - | 46 W/m² | - |
| 1777849306 | 15.56° C | 59% | 1010.7 hPa | 0 mm | - | 54 W/m² | - |
| 1777849003 | 15.56° C | 58% | 1010.6 hPa | 0 mm | - | 70 W/m² | - |
| 1777848703 | 15° C | 58% | 1010.8 hPa | 0 mm | - | 54 W/m² | - |
| 1777848400 | 15.56° C | 58% | 1010.8 hPa | 0 mm | - | 26 W/m² | - |
| 1777848098 | 15.56° C | 57% | 1010.5 hPa | 0 mm | - | 33 W/m² | - |
| 1777847796 | 15.56° C | 57% | 1010.4 hPa | 0 mm | - | 52 W/m² | - |
| 1777847492 | 15.56° C | 57% | 1010.2 hPa | 0 mm | - | 43 W/m² | - |
| 1777847189 | 15.56° C | 56% | 1010.5 hPa | 0 mm | - | 58 W/m² | - |
| 1777846887 | 15.56° C | 56% | 1010.7 hPa | 0 mm | - | 88 W/m² | - |
| 1777846586 | 15.56° C | 56% | 1010.7 hPa | 0 mm | - | 74 W/m² | - |
| 1777846282 | 15.56° C | 55% | 1010.9 hPa | 0 mm | - | 51 W/m² | - |
| 1777845979 | 15.56° C | 56% | 1010.5 hPa | 0 mm | - | 84 W/m² | - |
| 1777845676 | 16.11° C | 55% | 1010.8 hPa | 0 mm | - | 138 W/m² | - |
| 1777845373 | 16.11° C | 55% | 1010.9 hPa | 0 mm | - | 121 W/m² | - |
| 1777845069 | 16.67° C | 54% | 1010.9 hPa | 0 mm | - | 132 W/m² | - |
| 1777844768 | 16.67° C | 53% | 1010.9 hPa | 0 mm | - | 264 W/m² | - |
| 1777844464 | 16.11° C | 54% | 1011 hPa | 0 mm | - | 247 W/m² | - |
| 1777844163 | 16.11° C | 54% | 1011.2 hPa | 0 mm | - | 145 W/m² | - |
| 1777843859 | 16.11° C | 54% | 1011.2 hPa | 0 mm | - | 174 W/m² | - |
| 1777843556 | 16.11° C | 54% | 1011 hPa | 0 mm | - | 127 W/m² | - |
* Rain latest hour (hover to see other rain measurements)
** Current wind speed in m/s (hover to see current wind gust speed)